Regional Weather Roundup
Issued by NWS

Home | Current Version | Previous Version | Graphics & Text | Print | Product List | Glossary On
Versions: 1 2 3 4 5 6 7 8 9 10 11 12 13 14 15 16 17 18 19 20 21 22 23 24 25 26 27 28
000
ASUS45 KGTF 042210
RWRMT
MONTANA HOURLY WEATHER ROUNDUP
NATIONAL WEATHER SERVICE GREAT FALLS MT
400 PM MDT MON MAY 04 2015

NOTE: "FAIR" INDICATES FEW OR NO CLOUDS BELOW 12000 FEET WITH NO
SIGNIFICANT WEATHER AND/OR OBSTRUCTIONS TO VISIBILITY.

MTZ001>007-043-042300-
WEST OF THE DIVIDE

CITY           SKY/WX    TMP DP  RH WIND       PRES   REMARKS
KALISPELL      CLEAR     72  16  12 S14       29.81F
MISSOULA       MOSUNNY   76  25  15 S5        29.82F
BUTTE          SUNNY     68  14  12 SW6       29.91F
DEER LODGE       N/A     72  23  16 N5        29.91F
EUREKA           N/A     73  23  15 S8        29.79F
HAMILTON         N/A     77  25  14 NE6       29.81F
LIBBY            N/A     75  23  14 W8        29.78F
$$

MTZ008-052>055-042300-
SOUTHWEST MONTANA

CITY           SKY/WX    TMP DP  RH WIND       PRES   REMARKS
BOZEMAN        MOSUNNY   69  39  33 SE6       29.89F
DILLON         SUNNY     73  16  11 W13G20    29.89F
$$

MTZ009-010-012-014-046-048-049-054-042300-
EAST SLOPES AND CENTRAL MONTANA

CITY           SKY/WX    TMP DP  RH WIND       PRES   REMARKS
CUT BANK       SUNNY     71  26  18 MISG      29.83F
GREAT FALLS    MOSUNNY   75  25  15 S7        29.81F
MALMSTROM AFB  SUNNY     73  31  21 NE3       29.82F
HELENA         SUNNY     78  28  16 E9        29.84F
$$

MTZ011-013-016-021-045-047-050-051-042300-
NORTH CENTRAL MONTANA

CITY           SKY/WX    TMP DP  RH WIND       PRES   REMARKS
HAVRE          SUNNY     77  35  21 S13       29.81F
LEWISTOWN      LGT RAIN  68  37  32 W12G20    29.88F
CHINOOK          N/A     75  39  27 SE9       29.81F
FORT BENTON      N/A     75  34  22 CALM      29.81F
$$

MTZ017>020-022>042-056>058-061-062-042300-
EASTERN PLAINS

CITY           SKY/WX    TMP DP  RH WIND       PRES   REMARKS
BAKER          SUNNY     61  35  37 SE29G38   30.07F
BILLINGS       MOSUNNY   73  40  30 S12       29.89F
GLASGOW        SUNNY     75  40  28 S18G32    29.90F
JORDAN           N/A     75  40  28 SE18G32   29.90F
LIVINGSTON     MOSUNNY   70  34  26 SE14      29.91F
MILES CITY     SUNNY     70  43  37 SE24G31   29.95F
SIDNEY         MOSUNNY   72  41  33 SE21G26   30.02F
WOLF POINT     PTSUNNY   73  44  35 SE12G21   29.95F
BIG TIMBER       N/A     66  37  34 SE6       29.92F
FORSYTH          N/A     73  43  33 E15       29.90F
PLENTYWOOD       N/A     72  32  23 S17G24    30.00F
POPLAR           N/A     72  41  33 S18       29.97F
$$

REGIONAL REPORTS...DAKOTAS

CITY           SKY/WX    TMP DP  RH WIND       PRES   REMARKS
WILLISTON      MOSUNNY   72  32  23 S15G26    30.03F
MINOT          SUNNY     71  24  17 SE13      30.09F
DICKINSON      SUNNY     62  36  37 S26G35    30.10F
BEACH          FAIR      61  41  48 S28G35    30.07F
CROSBY         FAIR      72  25  17 S15G23    30.03F
WATFORD CITY   FAIR      68  36  30 S20G25    30.04F
BISMARCK       SUNNY     69  25  19 SE13      30.15F
GRAND FORKS    MOSUNNY   69  25  19 CALM      30.16F
FARGO          MOSUNNY   69  27  20 SW8       30.17F
BUFFALO SD       N/A     55  32  41 SE25G33   30.06F
RAPID CITY     CLOUDY    56  35  45 S13       30.14F
$$

REGIONAL REPORTS...WYOMING/IDAHO/WASHINGTON

CITY           SKY/WX    TMP DP  RH WIND       PRES   REMARKS
GILLETTE       SUNNY     60  40  47 S29G36    30.01F
SHERIDAN       MOSUNNY   71  42  35 S12       29.93F
BUFFALO WY     PTSUNNY   68  43  40 SE16G22   29.99F
CODY           PTSUNNY   63  46  55 E13       29.95F
YELLOWSTONE LA   N/A     53  31  42 VRB5      30.07F
IDAHO FALLS    MOSUNNY   75  31  19 N10       29.90F
SALMON           N/A     73  30  20 N6        29.82F
BOISE          MOSUNNY   84  33  16 S10       29.78F
SPOKANE        MOSUNNY   73  25  16 VRB6      29.80F
$$

REGIONAL REPORTS...ALBERTA

CITY           SKY/WX    TMP DP  RH WIND       PRES   REMARKS
EDMONTON       PTSUNNY   59  32  36 E18G29    29.89F
CALGARY        CLOUDY    70  19  14 SE12G18   29.81F
LETHBRIDGE     MOSUNNY   70  27  19 NE3G18    29.80F
MEDICINE HAT   MOSUNNY   73  34  23 SW13      29.81F
$$

REGIONAL REPORTS...SASKATCHEWAN

CITY           SKY/WX    TMP DP  RH WIND       PRES   REMARKS
SWIFT CURRENT  MOSUNNY   72  32  23 S14G28    29.88F
REGINA         MOSUNNY   68  28  22 S8G18     30.00F
SASKATOON      PTSUNNY   66  30  26 SE9G18    30.01F
$$



USA.gov is the U.S. government's official web portal to all federal, state and local government web resources and services.